Regional Weather Roundup
Issued by NWS

Home | Current Version | Previous Version | Graphics & Text | Print | Product List | Glossary Off
Versions: 1 2 3 4 5 6 7 8 9 10 11 12 13 14 15 16 17 18 19 20 21 22 23 24 25 26 27 28 29 30 31 32 33 34 35 36 37 38 39 40 41 42 43 44 45 46 47 48 49 50

000
ASUS43 KMKX 110859
RWRWI

WISCONSIN REGIONAL WEATHER ROUNDUP
NATIONAL WEATHER SERVICE MILWAUKEE/SULLIVAN WI
300 AM CST MON DEC 11 2017

NOTE: "FAIR" INDICATES FEW OR NO CLOUDS BELOW 12,000 FEET WITH NO
SIGNIFICANT WEATHER AND/OR OBSTRUCTIONS TO VISIBILITY.

WIZ001-002-006>008-014>016-023>028-111000-
NORTHWEST WISCONSIN

CITY           SKY/WX    TMP DP  RH WIND       PRES   REMARKS
SUPERIOR ARPT  LGT SNOW  17  16  93 CALM      29.85F
ASHLAND        CLOUDY    15  11  83 CALM      29.86F FOG
HAYWARD        LGT SNOW  20  16  84 S5        29.83F FOG     WCI  13
SIREN          LGT SNOW  22  20  93 SE8       29.83F WCI  12
CUMBERLAND     LGT SNOW  19  18  93 S7        29.85F VSB 1   WCI  10
RICE LAKE      LGT SNOW  19  18  96 CALM      29.87F VSB 3/4
CHETEK         CLOUDY    19  17  94 SE5       29.88F WCI  12
LADYSMITH      LGT SNOW  19  16  88 SE6       29.89F WCI  11
EAU CLAIRE     LGT SNOW  23  21  92 S7        29.88F VSB 3/4 WCI  15
MENOMONIE      LGT SNOW  24  23  96 SE5       29.90F WCI  18
NEW RICHMOND   LGT SNOW  24  23  94 S8        29.84F WCI  15
OSCEOLA        LGT SNOW  25  25 100 SE12      29.86F WCI  14
$$

WIZ003>005-009-010-017-018-111000-
NORTH CENTRAL WISCONSIN

CITY           SKY/WX    TMP DP  RH WIND       PRES   REMARKS
MANITOWISH WTR CLOUDY    11  10  99 S5        29.85F WCI   2
ARBOR VITAE    CLOUDY    14  12  90 S5        29.86F WCI   6
WOODRUFF       CLOUDY    14  12  90 S5        29.86F WCI   6
RHINELANDER    CLOUDY    13  10  88 S5        29.87F WCI   5
EAGLE RIVER    CLOUDY    12   8  87 S3        29.88F
LAND O LAKES   CLOUDY    12  10  89 S3        29.89F
PHILLIPS       CLOUDY    15  12  90 SE5       29.87F WCI   7
TOMAHAWK       CLOUDY    13  11  88 CALM      29.90F
MEDFORD        LGT SNOW  17  13  82 SE5       29.89F WCI  10
MERRILL        CLOUDY    16  13  89 CALM      29.93F
$$

WIZ029-030-035-036-043>047-111000-
CENTRAL WISCONSIN

CITY           SKY/WX    TMP DP  RH WIND       PRES   REMARKS
WAUSAU         CLOUDY    19  13  77 SE6       29.91F WCI  11
MOSINEE        CLOUDY    19  16  86 E3        29.94F
MARSHFIELD     LGT SNOW  20  17  88 SE6       29.90F FOG     WCI  12
STEVENS POINT  CLOUDY    18  16  93 CALM      29.96F
WAUPACA        CLOUDY    23  17  78 CALM      30.00S
WAUTOMA        CLOUDY    20  16  84 CALM      29.98F
WISC RAPIDS    LGT SNOW  20  15  81 SE6       29.95F WCI  12
CAMP DOUGLAS   CLOUDY    24  19  80 S3        29.95F
$$

WIZ011>013-019>022-031-037>040-048>050-111000-
NORTHEAST WISCONSIN

CITY           SKY/WX    TMP DP  RH WIND       PRES   REMARKS
ANTIGO         CLOUDY    16  12  86 S3        29.93F
SHAWANO        CLOUDY    22  15  72 CALM      30.00R
OCONTO         CLOUDY    17  12  83 CALM      30.01S
STURGEON BAY   CLOUDY    17  10  74 E3        30.01S
GREEN BAY      CLOUDY    21  14  74 SE5       30.00F WCI  15
MANITOWOC      CLOUDY    19  14  81 NW3       30.01F
APPLETON       CLOUDY    23  14  68 CALM      29.97S
CLINTONVILLE   CLOUDY    21  16  79 CALM      30.00S
OSHKOSH        CLOUDY    21  15  78 CALM      29.99R
$$

WIZ032>034-041-042-053>061-111000-
SOUTHWEST WISCONSIN

CITY           SKY/WX    TMP DP  RH WIND       PRES   REMARKS
LA CROSSE      LGT SNOW  27  23  85 SE9       29.94F VSB 1   WCI  18
SPARTA         FLURRIES  25  20  82 S3        29.97S
VIROQUA        CLOUDY    24  22  91 S6        29.94R WCI  17
BOSCOBEL       LGT SNOW  27  21  78 CALM      30.00R
PRAIRIE DU CHI CLOUDY    26  21  80 CALM      29.99S
PLATTEVILLE    CLOUDY    25  24  96 S8        29.98S WCI  16
$$

WIZ056-057-062-063-064-067-068-111000-
SOUTH CENTRAL WISCONSIN

CITY           SKY/WX    TMP DP  RH WIND       PRES   REMARKS
REEDSBURG      CLOUDY    24  18  80 CALM      29.97S
BARABOO/DELLS  CLOUDY    24  18  80 CALM      29.96F
LONE ROCK      NOT AVBL
MINERAL POINT  CLOUDY    27  23  86 S7        29.97R WCI  19
MADISON        CLOUDY    24  18  77 S5        29.97F WCI  18
MIDDLETON      CLOUDY    24  20  86 CALM      29.97F
WATERTOWN      CLOUDY    20  17  88 CALM      29.98F
MONROE         CLOUDY    23  19  86 S6        29.96F WCI  16
JANESVILLE     CLOUDY    25  21  86 S5        29.99R WCI  19
$$

WIZ051-052-058>065-066-070>072-111000-
SOUTHEAST WISCONSIN

CITY           SKY/WX    TMP DP  RH WIND       PRES   REMARKS
MILWAUKEE      CLOUDY    22  15  75 CALM      30.00F
WAUKESHA       PTCLDY    19  14  79 SE3       29.99F
MILWAUKEE/TIMM CLOUDY    18  12  79 S3        30.02F
RACINE         CLOUDY    20  16  84 CALM      30.01F
BURLINGTON     CLOUDY    26  26 100 CALM      29.99F
KENOSHA        PTCLDY    19  13  77 CALM      29.99F
FOND DU LAC    CLOUDY    20  14  77 CALM      29.99F
SHEBOYGAN      CLOUDY    22  17  81 CALM      30.00F
WEST BEND      PTCLDY    18  16  93 CALM      30.00S
JUNEAU         CLOUDY    19  14  82 CALM      29.99F
$$

LSZ147-162-111000-
LAKE SUPERIOR

STATION/POSITION TIME  TEMP    WIND        PRES    WAVE
                       AIR SEA DIR/SP/G            HT/PER
                 (UTC) (F)     (DEG/KT/KT) (MB)    (FT/S)
DEVILS ISLAND    0800   21     180/ 10/ 13 1013.4F
SAXON HARBOR     0830   18                 1011.9F
$$

LMZ867-665-643>646-111000-
LAKE MICHIGAN

STATION/POSITION TIME  TEMP    WIND        PRES    WAVE
                       AIR SEA DIR/SP/G            HT/PER
                 (UTC) (F)     (DEG/KT/KT) (MB)    (FT/S)
NORTHPORT PIER   0840   18     280/  2/  5 1016.3S
KEWAUNEE LAKESHO 0830   18     300/  3/  3 1015.6R
SHEBOYGAN LAKESH 0800   26        CALM     1017.2F
PORT WASHINGTON  0840   24     270/  4/  5 1017.3F
MILWAUKEE LAKESH 0830   27     220/  5/  5   N/A
KENOSHA   LAKESH 0800   25     250/  3/  5 1017.6
$$

TC  - TEMPERATURE IN CELSIUS
VSB - VISIBILITY IN STATUTE MILES
WCI - WIND CHILL INDEX
HX  - HEAT INDEX





USA.gov is the U.S. government's official web portal to all federal, state and local government web resources and services.